Location: B
(0.0000°N, 0.0000°E)
Time: 07:28:01
(UTC+02:00)

Cosmos 1025 Rocket - Visible Passes

Search period start: 01 June 2016 00:00
Search period end: 11 June 2016 00:00
Orbit: 594 x 619 km, 82.5° (Epoch: 31 May)

Date Brightness Start Highest point End Pass type
(mag) Time Alt. Az. Time Alt. Az. Time Alt. Az.
01 Jun 6.3 21:35:37 10° WSW 21:36:57 11° W 21:38:17 10° WNW visible
03 Jun 3.4 20:22:07 10° S 20:26:30 72° W 20:30:52 10° N visible
04 Jun 4.9 20:35:57 10° SSW 20:39:56 34° W 20:43:54 10° NNW visible
05 Jun 6.4 07:07:39 10° ENE 07:09:13 12° E 07:10:48 10° ESE visible
05 Jun 6.0 20:50:28 10° SW 20:53:21 17° W 20:56:14 10° NW visible
06 Jun 5.6 07:19:13 10° NNE 07:22:39 24° E 07:26:05 10° SE visible
07 Jun 4.1 07:31:57 10° NNE 07:36:04 49° E 07:40:13 10° SSE visible
10 Jun 6.0 06:36:26 10° NE 06:39:02 16° E 06:41:37 10° SE visible
